SCOUT X-4 DEB, 2011

Orbit data source: Space-Track

SCOUT X-4 DEB, 2011 is space debris in LEO originally from a launch on Thu, 29 Apr 1965 UTC launched from the Wallops Island (WLPIS). Debris objects in space refer to the collection of defunct objects orbiting the Earth. Examples of debris include non-operational satellites, rocket bodies, and fragments generated from explosions, collisions, or faulty payload assembly.

Loading next visibility...
Identifier
2011, 1965-032D
Orbit
LEO
Last TLE update
11 hours ago
Origin
Manufacturer
Unknown
Mission
Spacecraft
Bus & Motor
Unknown
Mass
Unknown
Launch date (UTC)
1965-04-29 (60 years ago)
Launch vehicle
Unknown
Launch site
Wallops Island (WLPIS)
Object type
Payload
Rocket body
Debris
Shape & HBR
Unknown
Radar Cross Section
Small (<0.1 m²)

Expand to show TLE details & history

TLE from 11 hours ago
0 SCOUT X-4 DEB
1  2011U 65032D   25129.14215140  .00000238  00000-0  49610-3 0  9993
2  2011  41.1998  55.1253 0235451 344.0307 145.8879 13.40407101923490
Epoch: 2025-05-09T03:24Z
Definitive object data (Epoch: 2025-05-09T03:24:41.88Z)
Latitude
29.71551°
Longitude
-83.69547°
Altitude
1,255.37 km
Speed
7.16 km/s
True Right ascension
12h 58m 43s
True Declination
29° 34' 38"
Sunlit
Object was in full shadow at TLE epoch
Visualization TLE readout
Latitude
-19.75617°
Longitude
-21.15089°
Altitude
1,236.277 km
Speed
7.177 km/s
Apparent Right ascension
14h 43m 39s
Apparent Declination
-38° 53' 26"
Sunlit
Object is in full shadow
Visualization observer readout
Local Sidereal Time
22:43:23
Azimuth
250.995° W
Elevation
-44.487°
Doppler factor
1
Orbital elements
Apogee altitude
1,286.129 km
Perigee altitude
933.519 km
Semi-major axis
7,487.961 km
Eccentricity
0.0235451
Inclination
41.1998°
RAAN
55.1253°
Arg. of periapsis
344.0307°
True anomaly
147.36483°
Mean anomaly
145.8879°
Eccentric anomaly
146.62993°
Mean motion
3.34964 °/min
BSTAR
0.0004961
Orbital period
107.47 mins
Loading maneuver chart data...
Loading SW <> Apogee altitude chart data...
Loading historical data...
Loading historical data...
Loading historical data...
Loading historical data...
Loading historical data...
Loading historical data...
Loading historical data...
Other satellites on launch #32 in the year 1965 (1965-04-29 UTC)

SCOUT X-4 DEB Visibility forecast

Observer location: undefined°, undefined°

Span
Click to sort rows by Start time (UTC) header in descending order
Start Az.
Max El. time (UTC)
Max El. Az.
Max El.
End time (UTC)
End Az.
7 mins2025-05-09 20:48:12.948Z172.476° S2025-05-09 20:51:12.948Z141.496° SSE17.965°2025-05-09 20:55:12.948Z101.18° ESE
11 mins2025-05-09 22:39:12.948Z228.004° WSW2025-05-09 22:44:12.948Z151.663° SSE40.662°2025-05-09 22:50:12.948Z78.818° E
13 mins2025-05-10 00:32:12.948Z265.999° W2025-05-10 00:38:12.948Z51.377° ENE44.341°2025-05-10 00:45:12.948Z82.745° E
13 mins2025-05-10 02:26:12.948Z281.592° WNW2025-05-10 02:31:12.948Z268.338° W44.609°2025-05-10 02:39:12.948Z105.911° ESE
13 mins2025-05-10 04:19:12.948Z277.001° WNW2025-05-10 04:25:12.948Z211.21° SW35.427°2025-05-10 04:32:12.948Z143.456° SSE
5 mins2025-05-10 06:16:12.948Z239.67° WSW2025-05-10 06:18:12.948Z223.544° SW13.709°2025-05-10 06:21:12.948Z200.763° SSW
|